Weather History for Flag Island, MN

Change the Weather History Date:

Tuesday, January 22, 2013

  Actual Average Record
Temperature  
Mean Temperature -14 °F -  
Max Temperature -4 °F 7 °F 28 °F (2007)
Min Temperature -25 °F -3 °F -29 °F (2011)
Degree Days  
Heating Degree Days 80    
Moisture  
Dew Point -22 °F    
Average Humidity 72    
Maximum Humidity 84    
Minimum Humidity 60    
Precipitation  
Precipitation 0.00 in - - ()
Sea Level Pressure  
Sea Level Pressure 30.16 in    
Wind  
Wind Speed 4 mph (SSW)    
Max Wind Speed 14 mph    
Max Gust Speed -    
Visibility 10 miles    
Events      
Averages and records for this station are not official NWS values.
T = Trace of Precipitation, MM = Missing Value Source: NWS Daily Summary

Daily Weather History Graph

Daily Weather History Graph

Search for Another Location

Airport:

Trip Planner

Search our weather history database for the weather conditions in past years. The results will help you decide how hot, cold, wet, or windy it might be!

Date:

Astronomy

Jan. 22, 2013 Rise Set
Actual Time 8:02 AM CST 5:00 PM CST
Civil Twilight 7:27 AM CST 5:35 PM CST
Nautical Twilight 6:48 AM CST 6:14 PM CST
Astronomical Twilight 6:10 AM CST 6:52 PM CST
Moon 1:19 PM CST (1/22) 4:29 AM CST (1/22)
Length of Visible Light 10h 08m
Length of Day
8h 57m
Waxing Gibbous, 83% of the Moon is Illuminated
Jan 22
Waxing Gibbous
Jan 26
Full
Feb 3
Last Quarter
Feb 10
New
Feb 17
First Quarter

Hourly Weather History & Observations

Time (CST) Temp. Windchill Dew Point Humidity Pressure Visibility Wind Dir Wind Speed Gust Speed Precip Events Conditions
12:13 AM -20.2 °F -37.3 °F -25.6 °F 76% 30.19 in 10.0 mi WNW 6.9 mph - N/A   Clear
12:34 AM -20.2 °F -38.8 °F -27.4 °F 69% 30.19 in 10.0 mi WNW 8.1 mph - N/A   Clear
12:53 AM -20.2 °F -33.5 °F -27.4 °F 69% 30.19 in 10.0 mi West 4.6 mph - N/A   Clear
1:13 AM -20.2 °F -35.5 °F -27.4 °F 69% 30.19 in 10.0 mi West 5.8 mph - N/A   Clear
1:34 AM -20.2 °F -35.5 °F -27.4 °F 69% 30.19 in 10.0 mi West 5.8 mph - N/A   Clear
1:53 AM -20.2 °F -33.5 °F -27.4 °F 69% 30.20 in 10.0 mi West 4.6 mph - N/A   Clear
2:14 AM -23.8 °F - -27.4 °F 83% 30.20 in 10.0 mi Calm Calm - N/A   Clear
2:34 AM -23.8 °F - -29.2 °F 76% 30.21 in 10.0 mi Calm Calm - N/A   Clear
2:53 AM -23.8 °F - -29.2 °F 76% 30.21 in 10.0 mi Calm Calm - N/A   Clear
3:14 AM -23.8 °F - -29.2 °F 76% 30.21 in 10.0 mi Calm Calm - N/A   Clear
3:34 AM -23.8 °F - -29.2 °F 76% 30.21 in 10.0 mi Calm Calm - N/A   Clear
3:53 AM -25.6 °F - -31.0 °F 76% 30.22 in 10.0 mi Calm Calm - N/A   Clear
4:14 AM -22.0 °F -41.0 °F -27.4 °F 76% 30.22 in 10.0 mi WNW 8.1 mph - N/A   Clear
4:33 AM -20.2 °F -40.1 °F -25.6 °F 76% 30.22 in 10.0 mi West 9.2 mph - N/A   Clear
4:53 AM -22.0 °F -39.4 °F -27.4 °F 76% 30.22 in 10.0 mi WNW 6.9 mph - N/A   Clear
5:13 AM -22.0 °F -35.6 °F -27.4 °F 76% 30.22 in 10.0 mi WNW 4.6 mph - N/A   Clear
5:53 AM -23.8 °F - -29.2 °F 76% 30.21 in 10.0 mi Calm Calm - N/A   Clear
6:14 AM -22.0 °F - -27.4 °F 76% 30.21 in 10.0 mi Calm Calm - N/A   Clear
6:33 AM -20.2 °F - -27.4 °F 69% 30.20 in 10.0 mi Calm Calm - N/A   Clear
6:53 AM -22.0 °F - -27.4 °F 76% 30.21 in 10.0 mi Calm Calm - N/A   Clear
7:14 AM -23.8 °F - -29.2 °F 76% 30.20 in 10.0 mi Calm Calm - N/A   Clear
7:33 AM -25.6 °F - -31.0 °F 76% 30.21 in 10.0 mi Calm Calm - N/A   Clear
7:54 AM -25.6 °F - -31.0 °F 76% 30.21 in 10.0 mi Calm Calm - N/A   Clear
8:13 AM -23.8 °F - -29.2 °F 76% 30.20 in 10.0 mi Calm Calm - N/A   Clear
8:34 AM -25.6 °F - -32.8 °F 69% 30.20 in 10.0 mi Calm Calm - N/A   Clear
8:54 AM -25.6 °F -37.1 °F -32.8 °F 69% 30.20 in 10.0 mi South 3.5 mph - N/A   Clear
9:13 AM -25.6 °F - -32.8 °F 69% 30.21 in 10.0 mi Calm Calm - N/A   Clear
9:34 AM -23.8 °F -35.0 °F -29.2 °F 76% 30.22 in 10.0 mi South 3.5 mph - N/A   Clear
9:53 AM -20.2 °F -30.9 °F -27.4 °F 69% 30.21 in 10.0 mi SSW 3.5 mph - N/A   Clear
10:13 AM -20.2 °F - -27.4 °F 69% 30.21 in 10.0 mi Calm Calm - N/A   Clear
10:34 AM -20.2 °F -30.9 °F -25.6 °F 76% 30.20 in 10.0 mi SSE 3.5 mph - N/A   Clear
10:53 AM -18.4 °F -28.9 °F -25.6 °F 70% 30.21 in 10.0 mi SE 3.5 mph - N/A   Clear
11:13 AM -16.6 °F - -23.8 °F 70% 30.20 in 10.0 mi Calm Calm - N/A   Clear
11:33 AM -14.8 °F - -20.2 °F 77% 30.20 in 10.0 mi Calm Calm - N/A   Clear
11:53 AM -13.0 °F - -20.2 °F 70% 30.19 in 10.0 mi Calm Calm - N/A   Clear
12:14 PM -9.4 °F - -16.6 °F 71% 30.19 in 10.0 mi Calm Calm - N/A   Clear
12:33 PM -7.6 °F - -16.6 °F 65% 30.18 in 10.0 mi Calm Calm - N/A   Clear
12:54 PM -9.4 °F -18.6 °F -16.6 °F 71% 30.17 in 10.0 mi ESE 3.5 mph - N/A   Clear
1:13 PM -9.4 °F -25.6 °F -16.6 °F 71% 30.17 in 10.0 mi South 8.1 mph - N/A   Clear
1:34 PM -7.6 °F -25.7 °F -14.8 °F 71% 30.16 in 10.0 mi South 10.4 mph - N/A   Clear
1:54 PM -4.0 °F -14.6 °F -13.0 °F 65% 30.15 in 10.0 mi West 4.6 mph - N/A   Clear
2:13 PM -4.0 °F -20.2 °F -14.8 °F 60% 30.14 in 10.0 mi SSW 9.2 mph - N/A   Clear
2:34 PM -7.6 °F -27.5 °F -14.8 °F 71% 30.14 in 10.0 mi South 12.7 mph - N/A   Clear
2:54 PM -7.6 °F -28.3 °F -14.8 °F 71% 30.15 in 10.0 mi South 13.8 mph - N/A   Clear
3:13 PM -5.8 °F -25.2 °F -14.8 °F 65% 30.15 in 10.0 mi South 12.7 mph - N/A   Clear
3:34 PM -5.8 °F -22.4 °F -14.8 °F 65% 30.14 in 10.0 mi South 9.2 mph - N/A   Clear
3:54 PM -5.8 °F -24.4 °F -14.8 °F 65% 30.14 in 10.0 mi South 11.5 mph - N/A   Clear
4:13 PM -7.6 °F -23.4 °F -14.8 °F 71% 30.14 in 10.0 mi South 8.1 mph - N/A   Clear
4:34 PM -7.6 °F -26.6 °F -14.8 °F 71% 30.14 in 10.0 mi SSW 11.5 mph - N/A   Clear
4:54 PM -7.6 °F -23.4 °F -14.8 °F 71% 30.13 in 10.0 mi SSW 8.1 mph - N/A   Clear
5:13 PM -7.6 °F -23.4 °F -16.6 °F 65% 30.12 in 10.0 mi SSW 8.1 mph - N/A   Clear
5:34 PM -7.6 °F -22.1 °F -14.8 °F 71% 30.12 in 10.0 mi SSW 6.9 mph - N/A   Clear
5:53 PM -7.6 °F -23.4 °F -14.8 °F 71% 30.11 in 10.0 mi SSW 8.1 mph - N/A   Clear
6:14 PM -9.4 °F -26.8 °F -16.6 °F 71% 30.11 in 10.0 mi SSW 9.2 mph - N/A   Clear
6:33 PM -9.4 °F -25.6 °F -16.6 °F 71% 30.10 in 10.0 mi SW 8.1 mph - N/A   Clear
6:54 PM -9.4 °F -27.9 °F -16.6 °F 71% 30.10 in 10.0 mi SW 10.4 mph - N/A   Clear
7:13 PM -9.4 °F -25.6 °F -16.6 °F 71% 30.10 in 10.0 mi SW 8.1 mph - N/A   Clear
7:54 PM -11.2 °F -24.8 °F -18.4 °F 70% 30.09 in 10.0 mi SW 5.8 mph - N/A   Clear
8:13 PM -11.2 °F -20.6 °F -18.4 °F 70% 30.08 in 10.0 mi South 3.5 mph - N/A   Clear
8:34 PM -14.8 °F -30.8 °F -20.2 °F 77% 30.07 in 10.0 mi South 6.9 mph - N/A   Clear
8:53 PM -16.6 °F -31.3 °F -20.2 °F 84% 30.06 in 10.0 mi South 5.8 mph - N/A   Clear
9:13 PM -14.8 °F - -20.2 °F 77% 30.07 in 10.0 mi Calm Calm - N/A   Mostly Cloudy
9:34 PM -13.0 °F -27.0 °F -18.4 °F 77% 30.06 in 10.0 mi South 5.8 mph - N/A   Overcast
9:53 PM -11.2 °F - -16.6 °F 77% 30.06 in 10.0 mi Calm Calm - N/A   Overcast
10:14 PM -11.2 °F -23.0 °F -16.6 °F 77% 30.05 in 10.0 mi SW 4.6 mph - N/A   Overcast
10:54 PM -9.4 °F - -16.6 °F 71% 30.06 in 10.0 mi Calm Calm - N/A   Overcast
11:13 PM -9.4 °F - -16.6 °F 71% 30.06 in 10.0 mi Calm Calm - N/A   Overcast
11:34 PM -11.2 °F - -16.6 °F 77% 30.06 in 10.0 mi Calm Calm - N/A   Overcast
11:54 PM -11.2 °F - -16.6 °F 77% 30.05 in 10.0 mi Calm Calm - N/A   Overcast